Location: Agdenes
(63.5833°N, 9.5167°E)
Time: 02:57:23
(UTC+00:00)

Daily predictions for brighter satellites

Satellite Brightness Start Highest point End
(mag) Time Altitude Azimuth Time Altitude Azimuth Time Altitude Azimuth
Cosmos 1400 Rocket 4.2 00:06:04 34° NW 00:06:04 34° NW 00:09:33 10° N
Cosmos 1805 Rocket 3.9 00:01:38 10° NNW 00:05:36 62° NE 00:05:36 62° NE
Meteor 2-10 Rocket 4.1 00:05:53 48° W 00:06:51 54° WNW 00:12:25 10° NNE
Cosmos 1452 Rocket 3.4 00:06:47 74° W 00:07:06 77° NW 00:12:25 10° NE
Cosmos 968 Rocket 4.1 00:02:00 10° NW 00:06:06 43° W 00:06:06 43° W
Cosmos 2227 Rocket 2.5 00:03:42 10° NW 00:08:31 52° W 00:08:31 52° W
Resurs 1-4 Rocket 3.5 00:05:03 10° NNE 00:09:32 27° E 00:10:53 24° ESE
CZ-2D R/B 3.5 00:07:58 10° NNE 00:12:31 28° E 00:13:55 24° ESE
Cosmos 1110 Rocket 3.9 00:12:47 73° SE 00:12:50 74° ESE 00:18:09 10° NE
Timation 1 Rocket 4.2 00:07:27 10° NW 00:13:30 89° SW 00:15:24 47° SE
Cosmos 1331 Rocket 3.9 00:17:49 73° ESE 00:17:50 73° ESE 00:23:02 10° NE
Cosmos 1656 Rocket 3.5 00:18:46 76° SW 00:19:15 90° SE 00:24:54 10° NE
USA 81 4.1 00:14:08 10° NNW 00:19:20 62° W 00:19:20 62° W
Cosmos 1302 Rocket 4.3 00:20:48 52° ESE 00:20:53 52° ESE 00:25:59 10° NE
Cosmos 1862 4.2 00:16:57 10° NNW 00:19:46 45° NNW 00:19:46 45° NNW
Cosmos-2242 3.6 00:22:51 51° NW 00:22:51 51° NW 00:26:35 10° NNE
SJ 16-02 2.6 00:18:38 10° NNW 00:22:50 40° NE 00:26:08 15° ESE
Cosmos 1959 Rocket 4.4 00:17:40 10° NNW 00:23:51 85° ENE 00:25:19 55° SSE
IRAS Rocket 4.3 00:22:54 47° SE 00:24:32 76° ENE 00:30:09 10° NNW
Cosmos 1943 Rocket 2.6 00:24:28 40° W 00:26:14 58° NNW 00:31:45 10° NE
Cosmos 304 Rocket 4.1 00:27:44 55° WNW 00:28:08 57° NW 00:32:53 10° NE
Cosmos 2154 Rocket 4.3 00:22:14 10° NNW 00:28:12 48° W 00:28:46 47° WSW
Cosmos 2219 4.1 00:24:46 10° NW 00:28:46 35° W 00:28:46 35° W
NOSS 3-4 (A) 3.5 00:25:40 10° W 00:32:07 84° SSW 00:39:20 10° ESE
NOSS 3-4 (C) 3.5 00:25:46 10° W 00:32:13 84° SSW 00:39:27 10° ESE
Cosmos 2221 2.8 00:33:12 64° ENE 00:33:12 64° ENE 00:37:11 10° NNE
Lacrosse 5 4.2 00:34:39 12° ESE 00:34:39 12° ESE 00:35:34 10° ESE
ATLAS 5 CENTAUR R/B 2.8 00:34:44 33° ESE 00:34:44 33° ESE 00:38:22 10° ENE
RESURS DK-1 3.9 00:32:58 21° WNW 00:35:06 35° N 00:38:58 10° ENE
COBE Rocket 4.0 00:34:35 66° SE 00:35:20 82° ENE 00:40:33 10° NNW
Landsat 4 4.4 00:32:59 10° NNE 00:35:52 51° NNE 00:35:52 51° NNE
Meteor 1-20 Rocket 4.5 00:32:38 10° NNW 00:38:06 62° ENE 00:40:25 34° SE
Cosmos 2181 Rocket 4.3 00:37:22 42° SSE 00:39:12 59° E 00:45:22 10° NNE
COSMOS 2455 3.2 00:37:19 19° W 00:41:46 64° N 00:47:48 10° ENE
MOZ.5/SAFIR/RUBIN 5/SL-8 4.0 00:43:29 56° WNW 00:43:29 56° WNW 00:47:34 10° NNW
Cosmos 1606 4.3 00:45:51 27° E 00:45:59 27° E 00:49:13 10° NNE
Cosmos 2341 Rocket 4.1 00:41:58 10° NNW 00:48:10 57° W 00:49:07 52° SW
ATLAS CENTAUR R/B 4.3 00:30:37 10° WSW 00:49:37 62° S 00:56:30 10° E
Cosmos 1455 4.2 00:49:50 20° NW 00:49:50 20° NW 00:52:31 10° N
CZ-4C R/B 3.5 00:50:08 82° NW 00:50:08 82° NW 00:54:23 10° NNW
H-2A R/B 4.5 00:46:38 10° E 00:50:14 24° NE 00:53:53 10° N
SL-19 R/B 4.3 00:48:05 38° SE 00:50:24 82° ENE 00:56:19 10° NNW
Sich 1 3.2 00:48:10 10° NNW 00:51:52 62° NW 00:51:52 62° NW
SL-19 R/B 4.4 00:49:42 10° NNE 00:54:53 58° ESE 00:55:58 48° SSE
Cosmos 2297 Rocket 3.4 00:50:01 10° NW 00:53:25 27° W 00:53:25 27° W
ATLAS 2AS CENTAUR R/B 2.8 00:47:56 10° WNW 00:55:50 84° SSW 01:03:12 10° ESE
PSLV R/B 3.8 00:51:23 10° NNE 00:55:55 61° WNW 00:55:59 61° WNW
ADEOS II 3.6 00:57:00 10° NNE 01:01:38 30° E 01:04:24 19° SE
Cosmos 1470 Rocket 4.0 00:57:41 10° NNW 01:02:07 61° ENE 01:03:16 44° SE
Cosmos 990 Rocket 4.4 00:58:02 10° NW 01:03:12 61° NE 01:08:23 10° SE
Nadezhda 1 Rocket 4.1 01:01:50 49° WSW 01:03:16 62° WNW 01:09:18 10° NNE
Cosmos 2082 4.2 00:58:36 10° NW 01:03:09 42° W 01:03:09 42° W
SL-16 R/B 2.6 01:04:18 51° SW 01:05:26 59° WSW 01:11:34 10° NNW
Cosmos 2369 Rocket 2.8 01:07:25 31° W 01:09:55 52° NNW 01:15:32 10° NE
UNK 4.0 01:11:15 50° WNW 01:11:15 50° WNW 01:15:18 10° NNW
Cosmos 1842 Rocket 3.7 01:11:31 63° WNW 01:11:38 63° WNW 01:16:08 10° NNE
Meteor 1-28 Rocket 3.8 01:13:48 47° ESE 01:14:25 54° ENE 01:18:04 10° NNW
Cosmos 1869 3.8 01:15:00 49° NW 01:15:00 49° NW 01:18:26 10° N
CZ-4 R/B 4.0 01:11:28 10° NNE 01:16:16 58° WNW 01:16:54 53° W
Cosmos 1697 Rocket 3.9 01:14:51 26° SSE 01:16:47 33° ESE 01:21:45 10° NE
Meteor 1-27 4.5 01:15:37 47° WSW 01:16:57 58° WNW 01:22:34 10° NNE
Cosmos 292 Rocket 3.7 01:17:05 64° WSW 01:17:43 74° NW 01:22:32 10° NE
Cosmos 2263 Rocket 2.0 01:12:08 10° NW 01:17:47 78° SW 01:23:28 10° SE
Helios 1B rocket 2.5 01:13:57 10° NNE 01:18:04 64° WNW 01:18:05 64° WNW
Cosmos 1844 Rocket 3.3 01:16:42 10° NW 01:22:17 59° NNE 01:27:53 10° ESE
Cosmos 2278 Rocket 3.4 01:18:07 10° WNW 01:23:30 41° N 01:28:52 10° E
Cosmos 1980 Rocket 3.9 01:20:37 17° SSE 01:23:32 25° ESE 01:28:01 10° NE
Cosmos 405 Rocket 3.7 01:20:07 10° NNW 01:22:58 38° NW 01:22:58 38° NW
Meteor 2-2 Rocket 4.3 01:23:28 50° SW 01:25:04 76° WNW 01:31:00 10° NNE
Cosmos 1821 Rocket 3.9 01:18:59 10° NNW 01:25:22 85° WSW 01:28:34 31° S
USA 234 3.5 01:20:39 10° SE 01:26:53 45° SSW 01:28:11 41° SW
Cosmos 1844 4.3 01:21:49 10° NW 01:27:23 57° NNE 01:32:52 10° ESE
SL-8 Rocket 4.4 01:22:42 10° NNW 01:28:34 43° W 01:29:39 40° WSW
Cosmos 1151 Rocket 3.9 01:28:20 33° SE 01:29:43 44° E 01:33:54 10° NNE
Cosmos 1633 Rocket 3.0 01:25:41 10° NNW 01:29:55 62° W 01:29:55 62° W
Cosmos 1934 Rocket 4.0 01:25:06 10° NNW 01:31:12 75° ENE 01:36:29 14° SSE
Cosmos 1500 4.3 01:27:43 10° N 01:31:27 44° ENE 01:33:56 19° SE
CZ-4B R/B 4.4 01:28:09 10° NNE 01:33:02 44° E 01:35:39 25° SSE
Cosmos 1656 3.9 01:32:51 41° S 01:34:30 57° SE 01:39:58 10° NE
NOSS 2-1 (C) 3.4 01:35:35 61° SE 01:35:35 61° SE 01:39:42 10° ENE
Cosmos 1328 Rocket 4.4 01:35:10 32° SSE 01:36:48 47° E 01:41:05 10° NNE
Cosmos 1602 3.5 01:33:56 10° NNW 01:37:48 89° E 01:37:59 81° SSE
Cosmos 1933 Rocket 3.5 01:34:40 10° NNW 01:39:05 84° ENE 01:40:30 42° SSE
Cosmos 1666 Rocket 3.9 01:35:28 10° NNW 01:39:33 47° W 01:39:33 47° W
NOSS 2-1 (D) 3.3 01:40:30 64° SSE 01:40:30 64° SSE 01:44:46 10° ENE
Cosmos 1992 Rocket 4.0 01:41:12 48° SSW 01:42:42 79° ESE 01:47:57 10° NE
Cosmos 1238 Rocket 4.1 01:38:42 10° NNW 01:45:25 83° ENE 01:51:14 12° SSE
Cosmos 2366 rocket 4.5 01:39:45 10° NNW 01:45:35 41° W 01:46:58 36° WSW
Meteor 1-25 Rocket 4.3 01:40:53 10° NNW 01:46:39 63° W 01:48:50 37° SSW
Cosmos 2227 4.2 01:41:05 10° NW 01:46:39 57° SW 01:51:01 16° SSE
Cosmos 1898 Rocket 3.4 01:42:39 10° NW 01:47:57 90° S 01:53:14 10° SE
CZ-4C R/B 2.6 01:43:22 17° W 01:48:27 85° SSW 01:56:02 10° ESE
Resurs 1-4 Rocket 2.0 01:44:43 10° NNE 01:50:02 88° WNW 01:51:57 41° SSW
Cosmos 2227 Rocket 4.0 01:48:33 10° WNW 01:50:17 15° WNW 01:50:17 15° WNW
Cosmos 1356 3.4 01:49:21 10° NNW 01:52:32 72° NW 01:52:32 72° NW
Cosmos 1818 3.7 01:51:34 43° SSW 01:53:14 65° SSE 01:58:40 10° ENE
CZ-2D R/B 2.0 01:47:52 10° NNE 01:53:15 87° WNW 01:55:13 40° SSW
ASTEX 1 4.4 01:49:50 10° NNE 01:54:40 46° E 01:59:09 12° SSE
Cosmos 858 Rocket 4.5 01:50:26 10° NW 01:55:40 83° NE 02:00:54 10° SE
Cosmos 1869 Rocket 3.9 01:54:43 10° NNW 01:59:04 64° ENE 02:03:23 10° SSE
SJ 16-02 1.3 01:57:18 10° NW 02:01:39 61° WSW 02:03:00 40° S
Cosmos 1302 Rocket 4.4 02:01:01 35° W 02:02:59 55° NW 02:08:12 10° NE
Cosmos 1656 Rocket 4.4 02:00:08 22° W 02:03:23 46° NNW 02:08:48 10° NE
Cosmos 1605 Rocket 4.1 01:57:17 10° NNW 02:03:44 82° ENE 02:10:10 10° SSE
Meteor 1-29 4.0 02:01:41 10° N 02:04:35 33° NW 02:04:35 33° NW
Meteor 1-5 Rocket 4.1 01:59:48 10° NNW 02:05:09 82° ENE 02:10:34 10° SSE
Nadezhda 3 Rocket 4.0 02:01:34 25° S 02:05:23 78° E 02:11:35 10° NNE
Cosmos 1535 Rocket 4.5 01:59:32 10° NNW 02:05:58 80° WSW 02:12:01 12° S
Cosmos 405 2.9 02:06:51 66° W 02:07:03 68° WNW 02:10:35 10° NNE
Cosmos 1933 3.3 02:06:43 47° S 02:07:52 86° ESE 02:11:58 10° NNE
Cosmos 1937 Rocket 3.4 02:03:57 10° NW 02:09:10 86° SW 02:14:20 10° SSE
Cosmos 2221 3.6 02:10:03 28° WNW 02:10:49 29° NW 02:14:40 10° N
Cosmos 1943 Rocket 3.3 02:05:58 11° WNW 02:10:55 40° N 02:16:08 10° ENE
NPP 3.6 02:06:25 10° NNE 02:11:51 79° WNW 02:14:20 33° SSW
TRAILBLAZER 4.5 02:09:14 23° WNW 02:12:07 82° SSW 02:16:43 10° ESE
RESURS DK-1 3.6 02:09:56 10° NW 02:13:56 42° NNE 02:17:55 10° E
Cosmos 2228 Rocket 4.3 02:10:31 12° SSE 02:14:16 39° E 02:18:25 10° NNE
SL-08 R/B 3.3 02:13:02 34° SSW 02:14:53 58° WSW 02:19:28 10° NNW
Lacrosse 5 3.1 02:13:50 25° S 02:15:12 28° SSE 02:19:29 10° E
Landsat 5 4.0 02:11:13 10° SSE 02:15:40 67° ENE 02:20:01 10° NNW
Cosmos 1241 Rocket 4.5 02:12:49 32° SW 02:16:02 82° SSE 02:22:35 10° ENE
ATLAS 5 CENTAUR R/B 1.7 02:16:15 39° WSW 02:17:58 77° SSE 02:23:20 10° ENE
AQUA 3.8 02:13:22 10° NNE 02:18:10 76° WNW 02:20:09 35° SW
Cosmos 1125 Rocket 4.4 02:15:03 10° NW 02:20:15 51° NE 02:25:25 10° ESE
ARIANE 5 R/B 3.2 02:16:10 10° NNE 02:21:11 51° ESE 02:25:30 13° S
Exosat Rocket 4.4 02:15:56 10° NW 02:21:22 65° NE 02:28:41 10° ESE
Cosmos 1606 2.8 02:20:52 47° WSW 02:21:30 55° WNW 02:25:14 10° N
IRS-P3 4.5 02:16:25 10° NNE 02:21:45 64° ESE 02:25:44 18° S
Meteor 1-14 Rocket 4.2 02:16:17 10° NNW 02:21:49 58° W 02:25:32 20° S
NOSS 3-4 (A) 3.8 02:16:24 10° WNW 02:22:48 52° SW 02:29:55 10° SE
NOSS 3-4 (C) 3.8 02:16:31 10° WNW 02:22:55 52° SW 02:30:02 10° SE
Cosmos 2181 Rocket 4.4 02:22:13 29° WSW 02:25:02 48° WNW 02:31:07 10° NNE
Genesis I 3.1 02:24:25 46° WSW 02:25:30 86° SSE 02:29:25 10° ENE
H-2A R/B 2.3 02:21:13 10° SSE 02:25:42 78° ENE 02:30:14 10° NNW
CZ-4C R/B 3.2 02:22:14 10° SSE 02:25:47 73° ENE 02:29:17 10° NNW
Cosmos 2278 4.3 02:23:25 21° S 02:27:02 52° ESE 02:32:34 10° NE
COSMOS 2455 3.1 02:22:12 10° WNW 02:28:17 73° NNE 02:34:21 10° ESE
IRS-1D 3.6 02:26:54 10° NNE 02:32:18 85° WNW 02:35:33 25° SSW
NOSS 2-1 (E) 3.3 02:31:25 39° WSW 02:32:49 82° S 02:37:38 10° E
ERS-2 2.8 02:29:37 10° SE 02:33:14 58° ENE 02:36:52 10° NNW
USA-17 4.3 02:35:28 47° WSW 02:36:06 59° SSW 02:39:47 10° ESE
Cosmos 2369 3.9 02:33:24 25° SSW 02:36:51 71° SE 02:42:34 10° NE
IRIDIUM 106 4.5 02:31:35 10° N 02:36:51 77° E 02:42:05 10° SSE
CBERS-1 4.0 02:31:50 10° NNE 02:36:59 83° WNW 02:40:08 24° SSW
Cosmos 1470 Rocket 4.4 02:35:52 10° NNW 02:39:47 31° W 02:40:23 30° WSW
Cosmos 220 Rocket 4.1 02:38:36 34° WSW 02:40:20 63° NW 02:44:40 10° NE
ADEOS II 2.0 02:36:36 10° NNE 02:41:54 80° WNW 02:45:20 22° SSW
Cosmos 2100 Rocket 4.3 02:36:24 10° NNW 02:42:49 73° ENE 02:49:13 10° SSE
Helios 1B 4.5 02:38:32 10° SSE 02:42:53 71° WSW 02:47:15 10° NNW
Cosmos 1782 2.7 02:42:19 26° SSW 02:44:30 86° WNW 02:48:34 10° NNE
Cosmos 990 Rocket 4.2 02:40:04 10° NW 02:45:00 44° WSW 02:49:56 10° S
ADEOS Rocket 3.2 02:39:22 10° SSE 02:45:39 75° ENE 02:51:24 10° NNW
IDEFIX/ARIANE 42P 3.0 02:40:24 10° NNE 02:45:40 62° ESE 02:50:54 10° S
Cosmos 972 Rocket 3.9 02:43:13 25° SSW 02:46:10 88° ESE 02:51:23 10° NNE
ATLAS 2AS CENTAUR R/B 3.0 02:39:04 10° WNW 02:46:28 51° SW 02:53:21 10° SSE
EP 3 4.4 02:48:57 46° ESE 02:48:57 46° ESE 02:50:46 10° E
Meteor 1-28 Rocket 4.1 02:48:46 28° W 02:48:46 28° W 02:51:59 10° NNW
Cosmos 1459 Rocket 4.2 02:43:56 10° NNW 02:50:06 74° ENE 02:56:09 10° SSE
SL-16 R/B 3.9 02:49:24 18° W 02:50:24 19° W 02:54:40 10° NW
Cosmos 1802 Rocket 4.4 02:45:32 10° NNW 02:51:43 67° ENE 02:57:57 10° SSE
Helios 1B rocket 4.3 02:49:46 10° N 02:52:44 19° NW 02:54:23 16° WNW
CZ-4B R/B 2.4 02:51:08 10° SE 02:54:19 48° ENE 02:57:35 10° N
Cosmos 2369 Rocket 3.3 02:49:38 10° WNW 02:55:00 40° N 03:00:23 10° ENE
Iridium 2 3.6 02:53:06 22° SSW 02:55:25 77° WNW 02:59:13 10° N
Cosmos 921 Rocket 3.7 02:52:55 13° S 02:56:26 49° ESE 03:00:32 10° NE
NOSS 7 (E) 4.4 02:56:13 31° W 02:57:31 56° SSW 03:01:13 10° SE
COSMO-SKYMED 1 4.3 02:53:43 10° ESE 02:57:42 36° NE 03:01:43 10° N
Cosmos 1697 Rocket 2.7 02:56:36 22° SW 03:00:19 89° NW 03:06:00 10° NE
Cosmos 2263 Rocket 3.0 02:56:26 10° NW 03:01:05 27° WSW 03:05:44 10° SSW
Meteor 1-11 Rocket 3.7 02:56:17 10° NNW 03:02:06 68° WSW 03:07:45 10° S
Cosmos 389 Rocket 2.4 03:00:21 25° SSW 03:02:21 77° WNW 03:06:00 10° NNE
Cosmos 1844 Rocket 2.7 03:00:47 10° NW 03:06:21 61° SW 03:11:55 10° SSE
Cosmos 1980 Rocket 2.4 03:02:25 17° SSW 03:06:49 73° SE 03:12:28 10° NE
Cosmos 1500 3.8 03:03:28 10° NNW 03:07:00 34° W 03:08:45 23° SW
Cosmos 2360 4.3 03:02:51 19° SW 03:07:02 85° SE 03:12:49 10° NE
Cosmos 1151 Rocket 3.6 03:05:12 24° WSW 03:07:22 42° WNW 03:11:34 10° N
USA 307 4.5 03:06:10 17° SSW 03:07:51 22° S 03:11:08 10° ESE
Cosmos 1515 Rocket 3.7 03:05:07 21° SW 03:08:01 61° WNW 03:12:25 10° NNE
Cosmos 2278 Rocket 2.6 03:02:44 10° NW 03:08:25 67° NE 03:14:04 10° ESE
SAR-Lupe-4 4.1 03:06:49 10° SE 03:10:23 63° ENE 03:13:58 10° NNW
USA 234 4.1 03:05:39 10° SSE 03:11:05 27° SW 03:15:31 14° W
USA 308 4.5 03:09:21 17° SSW 03:11:08 22° S 03:14:27 10° ESE
Cosmos 1844 3.6 03:06:10 10° NW 03:11:43 64° SW 03:17:13 10° SSE
CZ-4B R/B 3.7 03:06:57 10° NNE 03:11:54 55° WNW 03:15:35 18° SW
Cosmos 1666 2.8 03:08:32 10° NNW 03:12:18 52° W 03:16:01 10° S
CZ-2D R/B 3.5 03:09:07 10° NNE 03:13:21 87° ESE 03:17:38 10° SSW
Cosmos 44 3.9 03:10:35 16° SSW 03:13:59 47° SE 03:18:39 10° ENE
Cosmos 1328 Rocket 4.2 03:12:14 22° WSW 03:14:42 41° WNW 03:18:56 10° N
Cosmos 2322 Rocket 3.6 03:10:45 10° S 03:15:55 37° ESE 03:21:06 10° NE
Meteor 1-4 Rocket 3.0 03:14:09 10° S 03:17:38 61° ESE 03:21:13 10° NNE
Cosmos 1656 3.9 03:14:17 19° WSW 03:18:14 60° NNW 03:23:48 10° NE
Meteor 1-27 Rocket 4.5 03:15:12 10° S 03:21:00 59° E 03:26:45 10° NNE
Cosmos 1707 Rocket 4.2 03:17:16 10° S 03:21:32 59° E 03:25:52 10° NNE
IRS-1C 4.2 03:17:19 10° NNE 03:22:38 66° WNW 03:27:27 13° SW
Cosmos 372 Rocket 4.0 03:18:27 10° NW 03:23:31 56° WSW 03:28:31 10° SSE
CZ-3B R/B 3.7 03:21:32 16° SW 03:24:30 37° SSE 03:35:52 10° E
Cosmos 1536 2.9 03:20:35 10° NNW 03:24:36 56° W 03:28:35 10° S
Cosmos 1812 2.7 03:21:40 10° SSW 03:25:32 86° WNW 03:29:26 10° NNE
NOSS 2-1 (C) 3.5 03:22:55 18° W 03:25:48 88° S 03:30:48 10° E
Cosmos 2173 Rocket 4.0 03:20:15 10° NNW 03:26:35 77° W 03:32:57 10° S
Cosmos 1733 Rocket 3.0 03:22:38 10° NNW 03:27:00 68° W 03:31:19 10° S
SL-16 R/B 3.2 03:21:42 10° S 03:27:05 46° ESE 03:32:30 10° NE
Spot 4 Rocket 4.0 03:23:01 10° NNE 03:28:13 86° WNW 03:33:23 10° SSW
CZ-2C R/B 3.3 03:23:42 10° NNE 03:28:43 54° E 03:33:49 10° S
SAR-Lupe-1 4.1 03:25:46 10° SSE 03:29:22 83° ENE 03:33:00 10° NNW
Resurs 1-4 Rocket 3.2 03:24:52 10° NNE 03:29:26 31° NW 03:33:02 15° W
Cosmos 1898 Rocket 4.3 03:25:07 10° NW 03:29:32 28° WSW 03:33:57 10° SSW
ATLAS CENTAUR R/B 3.8 03:17:50 10° W 03:29:43 44° SW 03:34:33 10° SE
NOSS 2-1 (D) 3.5 03:27:49 16° W 03:30:51 88° S 03:35:52 10° E
Cosmos 2285 Rocket 4.1 03:25:38 10° NW 03:32:05 86° NE 03:38:33 10° SE
CZ-2D R/B 3.2 03:28:14 10° NNE 03:32:51 30° NW 03:36:33 14° W
ALOS 4.2 03:29:33 10° NNE 03:33:46 32° E 03:37:57 10° SSE
ASTEX 1 3.8 03:28:59 10° N 03:33:47 47° WNW 03:38:34 10° SW
Cosmos 1869 Rocket 4.4 03:32:57 10° NNW 03:36:42 28° W 03:40:24 10° SSW
Cosmos 1818 3.7 03:32:12 15° W 03:36:52 79° N 03:42:23 10° ENE
CZ-4C R/B 2.9 03:30:30 10° WNW 03:36:55 55° SW 03:44:30 10° SE
MSX 3.9 03:31:48 10° NNE 03:37:39 90° ESE 03:43:27 10° SSW
SJ 16-02 2.9 03:36:55 10° WNW 03:39:27 15° W 03:39:51 15° WSW
Cosmos 2298 Rocket 4.1 03:34:31 10° NW 03:39:46 59° WSW 03:44:58 10° SSE
PSLV R/B 4.0 03:38:35 10° NNE 03:42:49 64° ESE 03:46:58 10° S
SKYMED 2 3.9 03:41:16 10° SSE 03:45:36 70° ENE 03:49:58 10° NNW
Cosmos 1689 Rocket 2.3 03:45:16 10° SSE 03:48:15 76° ENE 03:51:16 10° NNW
Cosmos 1937 Rocket 4.4 03:46:22 10° NW 03:50:34 26° WSW 03:54:45 10° SSW
Landsat 5 4.4 03:47:32 10° SSW 03:51:30 30° W 03:55:24 10° NNW
RESURS DK-1 2.3 03:48:07 10° NW 03:52:19 85° SW 03:56:31 10° SE
Cosmos 2228 Rocket 3.4 03:48:10 10° SW 03:52:27 48° WNW 03:56:48 10° N
Cosmos 1943 Rocket 3.1 03:50:18 10° NW 03:55:43 48° NNE 04:01:05 10° E
Cosmos 1862 Rocket 4.1 03:51:54 10° S 03:56:13 64° E 04:00:31 10° NNE
Lacrosse 5 2.6 03:53:01 12° WSW 03:57:23 40° S 04:02:06 10° ESE
USA 32 4.4 03:52:49 10° NNW 03:57:47 43° W 04:02:44 10° SSW
Cosmos 2016 Rocket 3.9 03:52:02 10° NNW 03:58:09 69° W 04:04:12 10° S
CZ-4C R/B 4.3 03:56:10 10° SW 03:58:53 20° W 04:01:36 10° NW
Cosmos 1743 2.8 03:56:25 10° NNW 04:00:10 53° W 04:03:53 10° S
Cosmos 2061 Rocket 4.1 03:53:50 10° NNW 04:00:15 69° W 04:06:38 10° S
ARIANE 5 R/B 2.9 03:55:26 10° NNE 04:00:21 48° WNW 04:05:11 10° SW
ERBS 4.3 03:59:11 10° SSW 04:01:45 20° SSE 04:04:18 10° ESE
H-2A R/B 3.1 03:58:22 10° SSW 04:02:09 26° W 04:06:00 10° NW
Cosmos 1125 Rocket 3.6 03:57:18 10° NW 04:02:33 59° WSW 04:07:43 10° SSE
ATLAS 5 CENTAUR R/B 2.0 03:57:51 10° W 04:02:40 87° S 04:08:23 10° E
CZ-2C R/B 2.9 03:59:15 10° NNE 04:02:57 56° WNW 04:06:43 10° SW
Genesis I 3.3 03:59:20 10° W 04:03:14 77° N 04:07:08 10° E
Meteor 1-10 Rocket 4.4 03:58:43 10° SSW 04:04:33 67° WNW 04:10:31 10° NNE
Sich 1 Rocket 4.4 04:00:13 10° NNW 04:04:48 61° ENE 04:09:21 10° SSE
Cosmos 841 Rocket 4.3 04:00:59 10° SSW 04:06:06 55° ESE 04:11:16 10° NE
ERS-2 3.1 04:03:53 10° SSW 04:07:03 27° W 04:10:15 10° NW
Cosmos 2150 Rocket 4.4 04:02:28 10° NW 04:07:40 45° WSW 04:12:48 10° S
Meteor 2-6 Rocket 4.5 04:02:29 10° SW 04:08:12 57° WNW 04:14:06 10° NNE
Cosmos 2233 Rocket 4.0 04:02:12 10° NNW 04:08:23 89° WSW 04:14:33 10° SSE
Cosmos 1544 3.1 04:06:57 10° NNW 04:10:29 54° W 04:14:00 10° S
Cosmos 2278 3.9 04:05:30 10° WSW 04:11:12 66° NW 04:16:54 10° NE
Cosmos 1763 Rocket 3.6 04:06:39 10° SSW 04:11:59 84° SE 04:17:17 10° NE
Cosmos 2333 Rocket 4.4 04:08:38 10° SSE 04:13:27 28° ESE 04:18:15 10° NE
USA 267 4.2 04:07:31 10° E 04:13:40 41° SSE 04:19:49 10° SW
USA 305 4.5 04:10:38 10° WSW 04:13:57 22° S 04:17:16 10° SE
Aureole 2 Rocket 2.1 04:10:58 10° NW 04:14:08 89° ENE 04:17:07 10° SE
COSMOS 2455 2.9 04:08:19 10° WNW 04:14:17 61° SW 04:20:13 10° SE
PSLV R/B 3.9 04:11:12 10° SSE 04:15:18 71° WSW 04:19:27 10° NNW
Okean 2 Rocket 4.0 04:11:30 10° NNW 04:15:52 53° ENE 04:20:12 10° SE
USA 306 4.5 04:15:00 10° WSW 04:18:17 22° S 04:21:36 10° SE
Cosmos 1725 Rocket 4.0 04:13:55 10° NNW 04:20:02 61° W 04:26:06 10° S
ADEOS 4.0 04:14:59 10° NNE 04:20:14 69° ESE 04:25:27 10° S
ADEOS II 3.2 04:16:39 10° NNE 04:21:05 28° NW 04:25:31 10° WSW
Cosmos 2369 4.1 04:15:42 10° WSW 04:21:21 54° NNW 04:27:00 10° NE
Cosmos 1782 4.3 04:18:16 10° WSW 04:21:25 21° NW 04:24:35 10° N
Exosat Rocket 4.4 04:17:21 10° NW 04:22:55 49° WSW 04:30:27 10° S
Cosmos 1975 2.8 04:19:19 10° NNW 04:23:20 62° W 04:27:18 10° S
NOSS 2-1 (E) 3.7 04:19:18 10° W 04:23:21 80° SSW 04:28:50 10° ESE
IDEFIX/ARIANE 42P 3.1 04:20:13 10° NNE 04:25:11 42° NW 04:30:07 10° WSW
PAYLOAD A 3.8 04:21:09 10° NNE 04:25:52 68° WNW 04:30:31 10° SSW
